Weather reports worldwide

Advertisment
Navacerrada, Spain (8215): temperature & dewpoint: 16.06.2018 20:00:00 - 22.06.2018 20:00:00 (CEST)Navacerrada, Spain (8215): wind speed: 16.06.2018 20:00:00 - 22.06.2018 20:00:00 (CEST)Navacerrada, Spain (8215): wind direction: 16.06.2018 20:00:00 - 22.06.2018 20:00:00 (CEST)Navacerrada, Spain (8215): visibility: 16.06.2018 20:00:00 - 22.06.2018 20:00:00 (CEST)Navacerrada, Spain (8215): precipitation: 16.06.2018 20:00:00 - 22.06.2018 20:00:00 (CEST)
Date & Time tt [°C] td [°C] ff [km/h] ff [kn] dd vv [km] rr [mm]
22.06.2018 20:00:00 19,8 7,8 4 2 SSW 30 -
22.06.2018 19:00:00 21,2 7,8 2 1 NNW 19 0,0
22.06.2018 18:00:00 22,6 7,9 5 3 SSE 19 0,0
22.06.2018 17:00:00 23,0 7,5 13 7 S 30 -
22.06.2018 16:00:00 23,9 7,1 11 6 S 19 0,0
22.06.2018 15:00:00 23,4 7,9 13 7 S 19 0,0
22.06.2018 14:00:00 22,8 8,1 15 8 SSE 30 -
22.06.2018 13:00:00 21,8 8,0 15 8 S 20 0,0
22.06.2018 12:00:00 21,5 8,0 16 9 SSE 20 0,0
22.06.2018 11:00:00 20,3 6,6 16 9 SSE 30 -
22.06.2018 10:00:00 18,6 6,1 21 11 SSE 20 0,0
22.06.2018 09:00:00 16,7 6,5 24 13 SSE 20 0,0
22.06.2018 08:00:00 15,1 7,9 22 12 SSE 20 -
22.06.2018 07:00:00 14,3 5,6 22 12 SSE 20 0,0
22.06.2018 06:00:00 14,8 4,8 21 11 SE 20 0,0
22.06.2018 05:00:00 15,0 4,4 18 10 SSE 20 -
22.06.2018 04:00:00 15,0 4,1 16 9 SE 20 0,0
22.06.2018 03:00:00 15,5 4,2 16 9 SE 20 0,0
22.06.2018 02:00:00 15,7 3,5 11 6 SSE 20 -
22.06.2018 01:00:00 16,4 3,8 16 9 S 20 0,0
22.06.2018 00:00:00 16,6 3,3 9 5 SE 20 0,0
21.06.2018 23:00:00 16,9 3,2 5 3 SSE 20 -
21.06.2018 22:00:00 17,0 4,0 11 6 ESE 20 0,0
21.06.2018 21:00:00 17,8 3,6 11 6 E 20 0,0
21.06.2018 20:00:00 19,7 1,7 15 8 ESE 20 -
21.06.2018 19:00:00 21,6 5,9 11 6 SSE 19 0,0
21.06.2018 18:00:00 22,1 4,6 15 8 S 20 0,0
21.06.2018 17:00:00 22,5 6,3 13 7 SSE 30 -
21.06.2018 16:00:00 23,3 6,1 15 8 SSE 20 0,0
21.06.2018 15:00:00 22,9 8,9 15 8 SSE 20 0,0
21.06.2018 14:00:00 22,1 10,9 11 6 S 40 -
21.06.2018 13:00:00 22,2 11,0 15 8 SE 20 0,0
21.06.2018 12:00:00 20,7 11,3 18 10 SE 20 0,0
21.06.2018 11:00:00 19,3 10,6 16 9 SSE 30 -
21.06.2018 10:00:00 18,1 10,2 21 11 SSE 20 0,0
21.06.2018 09:00:00 16,3 9,2 15 8 S 20 0,0
21.06.2018 08:00:00 14,6 8,5 21 11 SSE 20 -
21.06.2018 07:00:00 13,2 7,8 18 10 SSE 20 0,0
21.06.2018 06:00:00 13,2 7,4 5 3 SSE 20 0,0
21.06.2018 05:00:00 13,2 10,2 4 2 W 20 -
21.06.2018 04:00:00 14,0 9,2 4 2 SSE 19 0,0
21.06.2018 03:00:00 14,9 9,9 9 5 ESE 20 0,0
21.06.2018 02:00:00 16,1 10,6 8 4 E 20 -
21.06.2018 01:00:00 16,5 9,7 16 9 E 20 0,0
21.06.2018 00:00:00 17,3 7,6 5 3 S 20 0,0
20.06.2018 23:00:00 17,0 8,2 8 4 ESE 20 -
20.06.2018 22:00:00 17,5 8,6 9 5 SE 20 0,0
20.06.2018 21:00:00 19,1 9,6 5 3 S 19 0,0
20.06.2018 20:00:00 20,4 10,2 8 4 S 20 -
20.06.2018 19:00:00 20,9 9,8 9 5 SSE 19 0,0
20.06.2018 18:00:00 20,9 9,8 9 5 SE 18 0,0
20.06.2018 17:00:00 20,5 10,9 5 3 SW 30 -
20.06.2018 16:00:00 21,2 10,7 11 6 S 20 0,0
20.06.2018 15:00:00 19,9 11,1 5 3 SW 19 0,0
20.06.2018 14:00:00 20,4 9,9 11 6 SW 30 -
20.06.2018 13:00:00 20,7 9,9 11 6 S 19 0,0
20.06.2018 12:00:00 22,5 10,6 9 5 S 19 0,0
20.06.2018 11:00:00 21,6 9,8 11 6 SSE 30 -
20.06.2018 10:00:00 19,7 8,7 15 8 S 20 0,0
20.06.2018 09:00:00 17,2 7,8 18 10 SSE 20 0,0
20.06.2018 08:00:00 15,3 8,1 21 11 SSE 15 -
20.06.2018 07:00:00 13,1 8,0 22 12 SSE 20 0,0
20.06.2018 06:00:00 13,1 8,0 22 12 SSE 20 0,0
20.06.2018 05:00:00 13,3 8,1 26 14 SSE 20 -
20.06.2018 04:00:00 13,9 7,6 24 13 SSE 20 0,0
20.06.2018 03:00:00 14,0 7,5 18 10 SSE 20 0,0
20.06.2018 02:00:00 15,0 7,0 18 10 SSE 20 -
20.06.2018 01:00:00 16,2 7,9 8 4 ESE 20 0,0
20.06.2018 00:00:00 16,5 9,2 2 1 WNW 20 0,0
19.06.2018 23:00:00 16,6 8,0 2 1 WSW 20 -
19.06.2018 22:00:00 16,7 8,6 11 6 S 20 0,0
19.06.2018 21:00:00 17,8 9,7 11 6 S 20 0,0
19.06.2018 20:00:00 19,7 9,9 5 3 SSW 30 -
19.06.2018 19:00:00 19,3 9,8 4 2 SSE 0,9 0,0
19.06.2018 18:00:00 20,2 9,4 8 4 SSW 19 0,0
19.06.2018 17:00:00 21,5 10,0 9 5 SSW 40 -
19.06.2018 16:00:00 21,0 9,9 9 5 SW 19 0,0
19.06.2018 15:00:00 22,8 9,9 9 5 S 19 0,0
19.06.2018 14:00:00 20,6 7,9 9 5 SSW 50 -
19.06.2018 13:00:00 20,9 9,2 11 6 S 20 0,0
19.06.2018 12:00:00 20,0 9,0 11 6 SSE 20 0,0
19.06.2018 11:00:00 18,5 8,5 15 8 SSE 40 -
19.06.2018 10:00:00 17,2 6,7 21 11 SSE 20 0,0
19.06.2018 09:00:00 15,5 6,8 22 12 SSE 20 0,0
19.06.2018 08:00:00 13,4 5,0 22 12 SSE 20 -
19.06.2018 07:00:00 11,4 4,8 21 11 SSE 20 0,0
19.06.2018 06:00:00 11,8 8,6 21 11 S 20 0,0
19.06.2018 05:00:00 13,2 8,9 15 8 SSE 20 -
19.06.2018 04:00:00 13,6 8,4 4 2 SSW 20 0,0
19.06.2018 03:00:00 14,0 8,8 5 3 WNW 20 0,0
19.06.2018 02:00:00 13,9 9,5 4 2 WSW 20 -
19.06.2018 01:00:00 14,0 9,8 8 4 NNW 20 0,0
19.06.2018 00:00:00 14,1 10,1 9 5 WNW 20 0,0
18.06.2018 23:00:00 13,7 10,3 2 1 WSW 20 -
18.06.2018 22:00:00 14,5 10,3 9 5 WNW 20 0,0
18.06.2018 21:00:00 16,4 10,5 11 6 NW 20 0,0
18.06.2018 20:00:00 17,8 9,2 9 5 NNW 20 -
18.06.2018 19:00:00 19,1 9,3 5 3 N 20 0,0
18.06.2018 18:00:00 19,8 8,8 9 5 NNW 20 0,0
18.06.2018 17:00:00 19,5 9,7 13 7 NW 20 -
18.06.2018 16:00:00 20,5 8,8 11 6 NNW 20 0,0
18.06.2018 15:00:00 19,0 7,4 15 8 NNW 20 0,0
18.06.2018 14:00:00 18,9 8,8 11 6 NW 2,0 -
18.06.2018 13:00:00 18,6 8,5 11 6 NW 20 0,0
18.06.2018 12:00:00 18,3 6,8 8 4 NNW 20 0,0
18.06.2018 11:00:00 17,0 2,9 9 5 N 20 -
18.06.2018 10:00:00 15,4 0,0 13 7 N 20 0,0
18.06.2018 09:00:00 13,4 -1,8 15 8 NNW 20 0,0
18.06.2018 08:00:00 12,2 3,4 16 9 NNW 20 -
18.06.2018 07:00:00 12,2 3,2 15 8 N 20 0,0
18.06.2018 06:00:00 11,4 6,1 9 5 N 20 0,0
18.06.2018 05:00:00 11,6 4,1 9 5 NW 20 -
18.06.2018 04:00:00 12,4 3,9 5 3 WNW 20 0,0
18.06.2018 03:00:00 12,7 4,1 9 5 N 20 0,0
18.06.2018 02:00:00 13,0 3,6 15 8 N 20 -
18.06.2018 01:00:00 13,3 1,0 13 7 N 20 0,0
18.06.2018 00:00:00 12,0 5,4 9 5 NW 20 0,0
17.06.2018 23:00:00 12,7 4,9 11 6 NW 20 -
17.06.2018 22:00:00 13,3 3,1 11 6 N 20 0,0
17.06.2018 21:00:00 15,0 0,4 9 5 NW 20 0,0
17.06.2018 20:00:00 15,6 1,3 11 6 NNE 30 -
17.06.2018 19:00:00 17,7 6,5 11 6 N 20 0,0
17.06.2018 18:00:00 18,6 7,7 13 7 NNW 20 0,0
17.06.2018 17:00:00 19,6 6,7 9 5 NNW 50 -
17.06.2018 16:00:00 19,3 7,4 9 5 NNW 20 0,0
17.06.2018 15:00:00 18,7 7,8 11 6 NNW 20 0,0
17.06.2018 14:00:00 18,2 8,7 11 6 NNW 50 -
17.06.2018 13:00:00 18,0 7,7 11 6 NNW 20 0,0
17.06.2018 12:00:00 17,3 6,2 11 6 NNW 20 0,0
17.06.2018 11:00:00 16,2 6,0 11 6 NNW 40 -
17.06.2018 10:00:00 16,0 6,4 8 4 NNW 20 0,0
17.06.2018 09:00:00 15,0 6,0 8 4 NNE 20 0,0
17.06.2018 08:00:00 13,9 5,5 11 6 NNE 20 -
17.06.2018 07:00:00 12,2 1,8 5 3 W 20 0,0
17.06.2018 06:00:00 12,0 1,3 8 4 W 20 0,0
17.06.2018 05:00:00 12,4 0,5 8 4 WNW 20 -
17.06.2018 04:00:00 12,4 -0,8 5 3 W 20 0,0
17.06.2018 03:00:00 12,7 -0,6 11 6 NNW 20 0,0
17.06.2018 02:00:00 12,8 -2,7 8 4 NNW 20 -
17.06.2018 01:00:00 12,6 -0,3 4 2 NW 20 0,0
17.06.2018 00:00:00 12,5 0,2 15 8 N 20 0,0
16.06.2018 23:00:00 12,8 1,1 13 7 N 20 -
16.06.2018 22:00:00 13,1 1,7 15 8 N 20 0,0
16.06.2018 21:00:00 15,1 3,9 9 5 NNW 20 0,0
16.06.2018 20:00:00 16,5 7,9 11 6 NNW 30 -

tt = temperature
td = dewpoint
ff = wind speed
dd = wind direction
vv = visibility
rr = precipitation

Next stations